Location: Newark
(35.2672°N, 80.7344°W)
Time: 14:25:32
(UTC+00:00)

Transit 2A Rocket - Pass Details

Date: 31 January 2020
Orbit: 591 x 912 km, 66.7° (Epoch: 29 February)

Event Time Altitude Azimuth Distance (km) Brightness Sun altitude
Rises 09:56:00 0° 246° (WSW) 2,831 - -30.2°
Reaches altitude 10° 09:58:57 10° 267° (W) 1,919 - -29.6°
Maximum altitude 10:01:43 17° 308° (NW) 1,533 - -29.1°
Drops below altitude 10° 10:04:31 10° 349° (N) 1,936 - -28.5°
Exits shadow 10:06:56 - 7° (N) 2,664 7.9 -28.0°
Sets 10:07:31 0° 10° (N) 2,868 8.1 -27.9°
